(355965) = 2004 TO196 = 2008 YJ167

Discovered at Socorro on 2008-12-21 by LINEAR.

Orbit

Orbit type: Main Belt

Note: WebGL enabled browser required.

epoch2024-03-31.0
epoch JD2460400.5
perihelion date2023-06-24.20979
perihelion JD2460119.70979
argument of perihelion (°)207.64081
ascending node (°)229.49295
inclination (°)1.88049
eccentricity0.1716424
perihelion distance (AU)1.9689192
Tisserand w.r.t. Jupiter3.5
ΔV w.r.t. Earth (km/sec)8.8
semimajor axis (AU)2.3768953
mean anomaly (°)75.52152
mean daily motion (°/day)0.26896070
aphelion distance (AU)2.785
period (years)3.66
P-vector [x]0.22286554
P-vector [y]0.90035322
P-vector [z]0.37375797
Q-vector [x]-0.97452986
Q-vector [y]0.21557984
Q-vector [z]0.06178095
absolute magnitude17.74
phase slope0.15
uncertainty0
referenceMPEC 2024-E73
observations used206
oppositions12
arc length (days)8049
first opposition used2002
last opposition used2024
residual rms (arc-secs)0.75
perturbers coarse indicatorM-v
perturbers precise indicator003Ek
first observation date used2002-02-20.0
last observation date used2024-03-05.0
computer nameMPCLINUX
JD of orbit computation2456406.177567
perihelion JD uncertainty (days)9.1174E-05
argument of perihelion uncertainty (°)1.7208E-04
ascending node uncertainty (°)1.7008E-04
inclination uncertainty (°)3.9234E-06
eccentricity uncertainty 4.0176E-08
perihelion distance uncertainty (AU)9.0584E-08
Minimum Orbit Intersection Distances (in AU)
for orbit epoch: 2460400.5, reference: E2024-G51
Mercury1.66238
Venus1.24851
Earth0.98486
Mars0.40773
Jupiter2.46302
Saturn7.0502
Uranus16.0126
Neptune27.5856

Observations

221 total observations over interval: 2002 02 20.27854 – 2024 03 05.303561
These data are available for download (format description).

Date (UT) J2000 RA J2000 Dec Magn Location Ref
2002 02 20.27854 11 07 19.93 +02 18 48.1 20.8 V 291 – LPL/Spacewatch II MPS 367146
2002 02 20.29837 11 07 18.83 +02 18 54.5 20.8 V 291 – LPL/Spacewatch II MPS 367146
2002 02 20.31812 11 07 17.75 +02 19 01.2 20.7 V 291 – LPL/Spacewatch II MPS 367146
2004 10 07.35413 02 07 44.81 +14 27 21.0 20.5 V 691 – Steward Observatory, Kitt Peak-Spacewatch MPS 117900
2004 10 07.38170 02 07 43.57 +14 27 13.5 20.5 V 691 – Steward Observatory, Kitt Peak-Spacewatch MPS 117900
2004 10 07.40807 02 07 42.36 +14 27 06.1 20.2 V 691 – Steward Observatory, Kitt Peak-Spacewatch MPS 117900
2004 10 11.36401 02 04 43.99 +14 07 54.8 20.0 V 691 – Steward Observatory, Kitt Peak-Spacewatch MPS 117900
2004 10 11.39537 02 04 42.41 +14 07 44.8 20.4 V 691 – Steward Observatory, Kitt Peak-Spacewatch MPS 117900
2004 10 11.42316 02 04 41.00 +14 07 36.1 20.6 V 691 – Steward Observatory, Kitt Peak-Spacewatch MPS 117900
2004 11 04.22943 01 43 33.68 +11 42 00.4 19.5 R 699 – Lowell Observatory-LONEOS MPS 312660
2004 11 04.24888 01 43 32.79 +11 41 52.5   699 – Lowell Observatory-LONEOS MPS 312660
2004 11 04.26836 01 43 31.68 +11 41 45.3   699 – Lowell Observatory-LONEOS MPS 312660
2004 11 04.28782 01 43 30.64 +11 41 39.0   699 – Lowell Observatory-LONEOS MPS 312660
2008 12 21.31832 07 11 14.94 +19 40 59.2 19.3   704 – Lincoln Laboratory ETS, New Mexico MPS 312026
2008 12 21.33118 07 11 14.18 +19 40 59.3 19.6   704 – Lincoln Laboratory ETS, New Mexico MPS 312026
2008 12 21.34443 07 11 13.42 +19 40 59.3 19.7   704 – Lincoln Laboratory ETS, New Mexico MPS 312026
2008 12 21.35728 07 11 12.71 +19 40 59.3 19.6   704 – Lincoln Laboratory ETS, New Mexico MPS 312026
2008 12 21.37015 07 11 11.90 +19 41 00.0 19.7   704 – Lincoln Laboratory ETS, New Mexico MPS 312026
2008 12 29.26633 07 03 24.12 +19 43 57.2 19.2   704 – Lincoln Laboratory ETS, New Mexico MPS 312026
2008 12 29.27913 07 03 23.25 +19 43 58.2 19.4   704 – Lincoln Laboratory ETS, New Mexico MPS 312026
2008 12 29.29183 07 03 22.42 +19 43 58.3 19.6   704 – Lincoln Laboratory ETS, New Mexico MPS 312026
2008 12 29.31754 07 03 20.69 +19 43 59.4 20.0   704 – Lincoln Laboratory ETS, New Mexico MPS 312026
2009 01 01.18318 07 00 20.14 +19 45 40.3 19.8 V 691 – Steward Observatory, Kitt Peak-Spacewatch MPS 312026
2009 01 01.20131 07 00 18.94 +19 45 41.2 19.8 V 691 – Steward Observatory, Kitt Peak-Spacewatch MPS 312026
2009 01 01.21967 07 00 17.74 +19 45 42.0 19.9 V 691 – Steward Observatory, Kitt Peak-Spacewatch MPS 312026
2009 01 15.14108 06 46 06.97 +19 56 21.1 19.7 V 691 – Steward Observatory, Kitt Peak-Spacewatch MPS 312026
2009 01 15.15745 06 46 06.00 +19 56 22.1 19.5 V 691 – Steward Observatory, Kitt Peak-Spacewatch MPS 312026
2009 01 15.17382 06 46 05.06 +19 56 23.1 20.2 V 691 – Steward Observatory, Kitt Peak-Spacewatch MPS 312026
2011 09 06.47058 22 22 51.972 -06 48 46.92 20.2 i F51 – Pan-STARRS 1, Haleakala MPS 391217
2011 09 06.48116 22 22 51.371 -06 48 50.71 20.3 i F51 – Pan-STARRS 1, Haleakala MPS 391217
2011 09 26.24872 22 07 21.61 -08 33 54.8 21.7 V G96 – Mt. Lemmon Survey MPS 392745
2011 09 26.25454 22 07 21.43 -08 33 56.0 21.5 V G96 – Mt. Lemmon Survey MPS 392745
2011 09 26.25978 22 07 21.21 -08 33 57.3 21.1 V G96 – Mt. Lemmon Survey MPS 392745
2011 09 26.26505 22 07 21.03 -08 33 59.0 21.7 V G96 – Mt. Lemmon Survey MPS 392745
2013 02 07.37043 11 20 07.05 +01 02 22.8 21.4 V 691 – Steward Observatory, Kitt Peak-Spacewatch MPS 453782
2013 02 07.38554 11 20 06.49 +01 02 25.4 21.2 V 691 – Steward Observatory, Kitt Peak-Spacewatch MPS 453782
2013 02 07.40066 11 20 05.87 +01 02 28.6 21.0 V 691 – Steward Observatory, Kitt Peak-Spacewatch MPS 453782
2013 02 15.47380 11 14 19.908 +01 36 01.64 20.7 w F51 – Pan-STARRS 1, Haleakala MPS 456401
2013 02 15.48748 11 14 19.213 +01 36 05.55 20.7 w F51 – Pan-STARRS 1, Haleakala MPS 456401
2013 02 15.50118 11 14 18.517 +01 36 09.64 20.5 w F51 – Pan-STARRS 1, Haleakala MPS 456401
2013 02 15.51484 11 14 17.831 +01 36 13.60 20.5 w F51 – Pan-STARRS 1, Haleakala MPS 456401
2013 03 03.39145 10 59 52.51 +03 08 43.3 19.8 V G96 – Mt. Lemmon Survey MPS 459244
2013 03 03.39559 10 59 52.22 +03 08 44.9 19.9 V G96 – Mt. Lemmon Survey MPS 459244
2013 03 03.39969 10 59 52.00 +03 08 46.3 19.6 V G96 – Mt. Lemmon Survey MPS 459244
2013 03 03.40552 10 59 51.68 +03 08 48.8 19.9 V G96 – Mt. Lemmon Survey MPS 459244
2013 03 05.41331 10 57 56.626 +03 21 49.82 20.0 w F51 – Pan-STARRS 1, Haleakala MPS 459244
2013 03 05.42826 10 57 55.728 +03 21 55.67 20.1 w F51 – Pan-STARRS 1, Haleakala MPS 459244
2013 03 05.44321 10 57 54.833 +03 22 01.53 20.2 w F51 – Pan-STARRS 1, Haleakala MPS 459244
2013 03 05.45816 10 57 53.936 +03 22 07.26 20.4 w F51 – Pan-STARRS 1, Haleakala MPS 459244
2013 04 03.31467 10 36 33.413 +06 02 38.57 21.1 w F51 – Pan-STARRS 1, Haleakala MPS 462647
2013 04 03.32972 10 36 33.014 +06 02 42.06 21.0 w F51 – Pan-STARRS 1, Haleakala MPS 462647
2013 04 03.34479 10 36 32.604 +06 02 45.33 21.0 w F51 – Pan-STARRS 1, Haleakala MPS 462647
2013 04 03.35990 10 36 32.206 +06 02 48.89 21.0 w F51 – Pan-STARRS 1, Haleakala MPS 462647
2015 09 16.78053 02 18 29.72 +15 33 02.4 21.4 R D29 – Purple Mountain Observatory, XuYi Station MPS 628501
2015 09 16.80512 02 18 29.63 +15 33 01.6 21.0 R D29 – Purple Mountain Observatory, XuYi Station MPS 628501
2015 10 08.06026 02 10 24.11 +14 39 50.1 19.9   J43 – Oukaimeden Observatory, Marrakech MPS 631047
2015 10 08.07022 02 10 23.68 +14 39 47.7 20.5   J43 – Oukaimeden Observatory, Marrakech MPS 631047
2015 10 08.08019 02 10 23.24 +14 39 45.3 20.1   J43 – Oukaimeden Observatory, Marrakech MPS 631047
2015 10 08.09019 02 10 22.81 +14 39 41.9 20.2   J43 – Oukaimeden Observatory, Marrakech MPS 631047
2015 10 10.02533 02 09 00.23 +14 30 51.1 19.9   J43 – Oukaimeden Observatory, Marrakech MPS 635377
2015 10 10.03773 02 08 59.64 +14 30 47.3 19.6   J43 – Oukaimeden Observatory, Marrakech MPS 635377
2015 10 10.05014 02 08 59.05 +14 30 43.7 19.8   J43 – Oukaimeden Observatory, Marrakech MPS 635377
2015 10 10.38746 02 08 44.110 +14 29 08.71 20.0 w F51 – Pan-STARRS 1, Haleakala MPS 635377
2015 10 10.39970 02 08 43.531 +14 29 05.31 19.9 w F51 – Pan-STARRS 1, Haleakala MPS 635377
2015 10 10.41195 02 08 42.947 +14 29 01.85 19.8 w F51 – Pan-STARRS 1, Haleakala MPS 635377
2015 10 10.73323 02 08 28.14 +14 27 27.2 19.6 R D29 – Purple Mountain Observatory, XuYi Station MPS 635377
2015 10 10.76145 02 08 26.93 +14 27 19.9 18.6 R D29 – Purple Mountain Observatory, XuYi Station MPS 635377
2015 10 12.73253 02 06 55.38 +14 17 28.5 20.3 R D29 – Purple Mountain Observatory, XuYi Station MPS 635377
2015 10 12.74664 02 06 54.68 +14 17 24.3 19.8 R D29 – Purple Mountain Observatory, XuYi Station MPS 635377
2015 10 15.04757 02 05 02.10 +14 05 14.1 20.1   J43 – Oukaimeden Observatory, Marrakech MPS 635377
2015 10 15.05950 02 05 01.47 +14 05 09.5 20.3   J43 – Oukaimeden Observatory, Marrakech MPS 635377
2015 10 15.07144 02 05 00.89 +14 05 05.3 20.3   J43 – Oukaimeden Observatory, Marrakech MPS 635377
2015 10 15.08337 02 05 00.25 +14 05 01.6 19.6   J43 – Oukaimeden Observatory, Marrakech MPS 635377
2015 11 03.61489 01 47 25.40 +12 04 22.7 20.0 R D29 – Purple Mountain Observatory, XuYi Station MPS 645050
2015 11 03.63021 01 47 24.57 +12 04 17.7 20.1 R D29 – Purple Mountain Observatory, XuYi Station MPS 645050
2015 11 05.18286 01 46 05.07 +11 54 33.3 19.6 R H15 – ISON-NM Observatory, Mayhill MPS 645050
2015 11 05.19242 01 46 04.52 +11 54 30.0 20.2 R H15 – ISON-NM Observatory, Mayhill MPS 645050
2015 11 05.20206 01 46 04.02 +11 54 26.2 19.8 R H15 – ISON-NM Observatory, Mayhill MPS 645050
2015 11 06.18478 01 45 14.81 +11 48 19.7 19.8 V 703 – Catalina Sky Survey MPS 645050
2015 11 06.19462 01 45 14.29 +11 48 16.5 19.9 V 703 – Catalina Sky Survey MPS 645050
2015 11 06.19955 01 45 14.09 +11 48 14.9 19.6 V 703 – Catalina Sky Survey MPS 645050
2015 11 08.23271 01 43 35.19 +11 35 54.9 19.8 r G45 – Space Surveillance Telescope, Atom Site MPS 650238
2015 11 08.23743 01 43 34.93 +11 35 53.5 19.5 r G45 – Space Surveillance Telescope, Atom Site MPS 650238
2015 11 08.23898 01 43 34.88 +11 35 52.5 20.0 r G45 – Space Surveillance Telescope, Atom Site MPS 650238
